map of NZPG home
Great Circle Mapper logo
NZPG - Airport
Location
City:  McMurdo Station, Ross Island, Antarctica
Name:Pegasus Field
ICAO:NZPG

Details
Type:Airport (Aerodrome, Airfield)
Latitude:77°57'48"S (-77.963440)
Longitude:166°31'29"E (166.524609)
Datum:other
Elevation:18 ft (5 m)
Variation:143.1°E (WMM2015 magnetic declination)
Runways:1
Longest:10000 × 220 ft (3048 × 67 m)

Time
Time Zone:UTC+12 (DST+13)
Local Time:

Weather
METAR:NZPG 171655Z 07004KT 9999 VCFG FEW002 FEW015 FEW080 M14/M16 A2941 RMK SLP962 VCFG GRID SW-N FATA MORGTANA GRID N-E GRID24004KT SDG/HDG LAST

Related Locations
Nearby:
Farthest:ENAS: 12075 mi / 19433 km
Ny-Ålesund [Ny-Ålesund Hamnerabben (Broggerhalvoya)], Svalbard, NO

Find:

   beyond  
but within

Other Information
Maps:
NOTAMs:
Links:
Sources:

  

Sectional Chart

Flight Planning
at skyvector.com

Satellite Image

Google Maps Satellite View

 

Copyright © 2004-2014 Karl L. Swartz. All rights reserved.
The Great Circle Mapper name and logo are trademarks of the Great Circle Mapper.
All other trademarks mentioned herein belong to their respective owners.
Please see credits for attibutions and further copyright information.

  Follow gcmap on Facebook Follow gcmap on Twitter

hCard Microformat

Geo Microformat